This is the latest recevied weather packets stored in our database for station/object K4KMJ. If no packets are shown the sender has not sent any weather packets the latest 10 day(s).
| Time | Temp. | Humidity | Pressure | Rain* | Wind** | Luminosity | Snow |
|---|---|---|---|---|---|---|---|
| 1777237946 | 31.67° C | 45% | 1011.4 hPa | 0 mm | - | 267 W/m² | - |
| 1777237641 | 31.67° C | 45% | 1011.5 hPa | 0 mm | - | 237 W/m² | - |
| 1777237334 | 32.22° C | 46% | 1011.3 hPa | 0 mm | - | 221 W/m² | - |
| 1777237031 | 31.67° C | 46% | 1011.2 hPa | 0 mm | - | 220 W/m² | - |
| 1777236729 | 31.67° C | 48% | 1011.4 hPa | 0 mm | - | 222 W/m² | - |
| 1777236427 | 32.22° C | 49% | 1011.1 hPa | 0 mm | - | 206 W/m² | - |
| 1777236124 | 31.67° C | 51% | 1011.2 hPa | 0 mm | - | 210 W/m² | - |
| 1777235820 | 32.22° C | 51% | 1011.2 hPa | 0 mm | - | 89 W/m² | - |
| 1777235517 | 32.78° C | 52% | 1011.4 hPa | 0 mm | - | 246 W/m² | - |
| 1777235213 | 31.67° C | 54% | 1011.3 hPa | 0 mm | - | 225 W/m² | - |
| 1777234909 | 31.11° C | 55% | 1011.5 hPa | 0 mm | - | 227 W/m² | - |
| 1777234605 | 31.67° C | 54% | 1011.3 hPa | 0 mm | - | 239 W/m² | - |
| 1777234304 | 31.67° C | 54% | 1011.4 hPa | 0 mm | - | 217 W/m² | - |
| 1777234001 | 31.11° C | 54% | 1011.6 hPa | 0 mm | - | 240 W/m² | - |
| 1777233698 | 30.56° C | 55% | 1011.7 hPa | 0 mm | - | 199 W/m² | - |
| 1777233393 | 31.67° C | 55% | 1011.6 hPa | 0 mm | - | 282 W/m² | - |
| 1777233087 | 31.11° C | 55% | 1011.8 hPa | 0 mm | - | 268 W/m² | - |
| 1777232784 | 31.67° C | 56% | 1011.4 hPa | 0 mm | - | 278 W/m² | - |
| 1777232483 | 30.56° C | 57% | 1011.8 hPa | 0 mm | - | 318 W/m² | - |
| 1777232180 | 30° C | 58% | 1011.9 hPa | 0 mm | - | 399 W/m² | - |
| 1777231877 | 30° C | 58% | 1011.8 hPa | 0 mm | - | 197 W/m² | - |
| 1777231574 | 30° C | 59% | 1012 hPa | 0 mm | - | 227 W/m² | - |
| 1777231270 | 30° C | 59% | 1011.9 hPa | 0 mm | - | 233 W/m² | - |
| 1777230966 | 31.11° C | 60% | 1012 hPa | 0 mm | - | 220 W/m² | - |
| 1777230662 | 30.56° C | 61% | 1012 hPa | 0 mm | - | 356 W/m² | - |
* Rain latest hour (hover to see other rain measurements)
** Current wind speed in m/s (hover to see current wind gust speed)